Flag for United Kingdom Weather past 2 weeks in Oldham, England, United Kingdom

Now
46 °F

Passing clouds.


Feels Like: 41 °F
Forecast: N/A
Wind: 13 mph from Southwest

Location: Manchester Airport

Current Time: Mar 5, 2015 at 9:05:58 PM

Latest Report: Mar 5, 2015 at 8:20 PM


Visibility: N/A

Pressure: 30.54 "Hg

Humidity: 76%

Dew point: 39 °F

Location of OldhamLocation

Historic Weather in Oldham — Graph

°F

Oldham temperature yesterday

Maximum temperature yesterday: 46 °F (at 12:50 PM)
Minimum temperature yesterday: 36 °F (at 10:20 PM)
Average temperature yesterday: 41 °F

Past Weeks' High & Low Weather Summary

 TemperatureHumidityPressure
High52 °F (Feb 28, 12:50 PM)100% (Feb 19, 11:50 AM)30.63 "Hg (Feb 19, 11:50 AM)
Low32 °F (Feb 20, 6:20 AM)46% (Mar 3, 1:20 PM)29.03 "Hg (Feb 23, 4:20 PM)
Average41 °F84%29.76 "Hg
* Reported Feb 18 7:20 PM — Mar 5 7:50 PM, Oldham, Weather by CustomWeather, © 2015

Note: Actual official high and low records may vary slightly from our data, if they occured in-between our weather recording intervals... More about our weather records

Advertising

Oldham weather history for previous 24 hours

 ConditionsComfort  
Time TempWeatherWind HumidityBarometerVisibility
7:50 PM
Thu, Mar 5
46 °FPassing clouds.13 mph71%30.54 "HgN/A
7:20 PM46 °FPassing clouds.14 mph76%30.54 "HgN/A
6:50 PM46 °FOvercast.14 mph76%30.54 "HgN/A
6:20 PM46 °FPassing clouds.13 mph71%30.54 "HgN/A
5:50 PM46 °FPartly sunny.12 mph71%30.54 "HgN/A
5:20 PM46 °FPartly sunny.15 mph71%30.54 "HgN/A
4:50 PM48 °FPartly sunny.13 mph66%30.54 "HgN/A
4:20 PM48 °FPartly sunny.16 mph66%30.54 "HgN/A
3:50 PM48 °FPartly sunny.18 mph66%30.54 "HgN/A
3:20 PM48 °FPartly sunny.17 mph66%30.54 "HgN/A
2:50 PM48 °FPartly sunny.16 mph71%30.57 "HgN/A
2:20 PM48 °FMore clouds than sun.20 mph71%30.57 "HgN/A
1:50 PM48 °FPartly sunny.18 mph71%30.57 "HgN/A
1:20 PM48 °FBroken clouds.16 mph66%30.57 "HgN/A
12:50 PM48 °FPartly sunny.12 mph71%30.57 "HgN/A
12:20 PM46 °FPartly sunny.13 mph76%30.60 "HgN/A
11:50 AM46 °FPartly sunny.14 mph76%30.60 "HgN/A
11:20 AM45 °FPartly sunny.13 mph81%30.60 "HgN/A
10:50 AM45 °FPartly sunny.12 mph81%30.60 "HgN/A
10:20 AM45 °FPartly sunny.12 mph81%30.60 "HgN/A
9:50 AM43 °FPartly sunny.12 mph87%30.60 "HgN/A
9:20 AM43 °FPartly sunny.9 mph87%30.63 "HgN/A
8:50 AM41 °FPartly sunny.10 mph87%30.63 "HgN/A
8:20 AM41 °FPartly sunny.9 mph87%30.63 "HgN/A
7:50 AM39 °FPartly sunny.9 mph93%30.60 "HgN/A
7:20 AM39 °FPartly sunny.10 mph93%30.60 "HgN/A
6:50 AM37 °FPartly sunny.9 mph100%30.63 "HgN/A
6:20 AM36 °FPassing clouds.9 mph100%30.63 "HgN/A
5:50 AM36 °FClear.8 mph93%30.60 "Hg10 mi
5:20 AM34 °FPassing clouds.8 mph100%30.60 "HgN/A
4:50 AM34 °FPassing clouds.6 mph93%30.60 "HgN/A
4:20 AM34 °FClear.8 mph93%30.60 "Hg10 mi
3:20 AM34 °FClear.6 mph87%30.63 "Hg10 mi
2:50 AM34 °FChilly.7 mph87%30.63 "HgN/A
1:50 AM36 °FPassing clouds.7 mph87%30.63 "HgN/A
1:20 AM36 °FPassing clouds.6 mph87%30.63 "HgN/A
12:50 AM36 °FClear.6 mph87%30.63 "Hg10 mi
12:20 AM36 °FPassing clouds.7 mph87%30.63 "HgN/A
11:50 PM
Wed, Mar 4
36 °FPassing clouds.9 mph87%30.63 "HgN/A
11:20 PM36 °FClear.8 mph87%30.63 "Hg10 mi
10:50 PM36 °FClear.6 mph87%30.63 "Hg10 mi
10:20 PM36 °FClear.5 mph87%30.63 "Hg10 mi
9:20 PM37 °FPassing clouds.6 mph81%30.63 "HgN/A
Weather by CustomWeather, © 2015

See weather overviewHow to use our weather pages